Weather in Modin

Russia / Saratov Oblast     51°10′24″N   49°23′57″E
В апреле 2022 года жителям России запретили посещать сайт meteo.paraplan.net по решению Генеральной прокуратуры. Аудитория сайта уменьшилась в 10 раз. Владельцы сайта не видят смысла в поддержке погодного сервера в таких условиях. Сайт будет закрыт в октябре.
temp.,
°C
wind,
m/s
gust,
m/s
humid.,
%
clouds,
%
prec.,
mm/h
press.,
hPa
HPBL,
m
29 september, thu
thu2901:00+16s71253100 0.0 1008376
04:00+14sse71293100 4.3 1007562
07:00+14s81393100 1.9 1008572
10:00+15sse7147186 2.2 1008431
13:00+22sw674826 0.0 10081043
16:00+21wsw665982 0.4 10091045
19:00+18wnw3679100 0.7 1011268
22:00+15nw47930 0.8 1013197
30 september, fri
fri3001:00+14nnw379716 0.0 1014182
04:00+14nnw369597 0.0 1016203
07:00+14n369144 0.0 1017262
10:00+16n457527 0.0 1019487
13:00+18n3364100 0.0 10201010
16:00+17n3366100 0.0 1020820
19:00+16nne3475100 0.0 1022210
22:00+16nne2374100 0.0 1022136
1 october, sat
sat101:00+14ne3579100 0.0 1022114
04:00+13ne2383100 0.0 102347
07:00+12ene238599 0.0 102349
10:00+15ene226847 0.0 1024398
13:00+18ese115729 0.0 1023976
16:00+19ssw125134 0.0 10221260
19:00+17sse2262100 0.0 102218
22:00+16sse3367100 0.0 102146
2 october, sun
sun201:00+15sse467093 0.0 1020112
04:00+14sse477584 0.0 1020126
07:00+15sse487249 0.0 1019149
10:00+17sse61064100 0.0 1019274
13:00+22s78455 0.0 1017891
16:00+23s684992 0.0 10161516
19:00+21s61159100 0.9 1016359
22:00+19s5116073 0.9 1015243
3 october, mon
mon301:00+17s5106477 0.0 1015196
04:00+16s51259100 0.0 1016235
07:00+15sse7136271 0.0 1017338
10:00+17sse9134359 0.0 1018544
13:00+21sse10123191 0.0 1018995
16:00+21sse91130100 0.0 10191271
19:00+18sse71431100 0.0 1020553
22:00+16sse71531100 0.0 1021549